Regional Weather Roundup
Issued by NWS

Home | Current Version | Previous Version | Text Only | Print | Product List | Glossary On
Versions: 1 2 3 4 5 6 7 8 9 10 11 12 13 14 15 16 17 18 19 20 21 22 23 24 25 26 27 28 29 30 31 32 33 34 35 36 37 38 39 40 41 42 43 44 45 46 47 48 49 50
000
ASUS45 KPSR 270110
RWRAZ

ARIZONA HOURLY REGIONAL WEATHER ROUNDUP
NATIONAL WEATHER SERVICE PHOENIX AZ
600 PM MST THU APR 26 2018

NOTE: FAIR INDICATES FEW OR NO CLOUDS BELOW 12,000 FEET WITH NO
SIGNIFICANT WEATHER AND/OR OBSTRUCTIONS TO VISIBILITY.

AZZ001>003-036-270200-
NORTHWEST ARIZONA

CITY           SKY/WX    TMP DP  RH WIND       PRES   REMARKS
BULLHEAD CITY  MOSUNNY  102  19   5 SE8       29.70F
KINGMAN        SUNNY     88  23   9 SW17G23   29.91S
$$

AZZ004>008-015-016-018-270200-
NORTH CENTRAL ARIZONA

CITY           SKY/WX    TMP DP  RH WIND       PRES   REMARKS
GRAND CANYON   MOSUNNY   72  14  11 VRB3      30.12S
WILLIAMS       PTSUNNY   72  14  11 CALM      30.09S
PRESCOTT       PTSUNNY   78  23  13 SW16      30.01R
FLAGSTAFF      PTSUNNY   70  20  15 SE3       30.14S
PAYSON         CLOUDY    75  21  13 W10G16    30.03S
PAGE           SUNNY     82   4   5 NE6       29.98F
$$

AZZ009>014-017-270200-
NORTHEAST ARIZONA

CITY           SKY/WX    TMP DP  RH WIND       PRES   REMARKS
WINSLOW        MOSUNNY   83  18   9 N5        30.00S
SAINT JOHNS    PTSUNNY   77  11   8 N6        30.03F
WINDOW ROCK    SUNNY     73  -5   4 NW8       30.12R
SHOW LOW       PTSUNNY   73   9   8 N8        30.11S
$$

AZZ540-542>544-546-548-270200-
GREATER PHOENIX AREA

CITY           SKY/WX    TMP DP  RH WIND       PRES   REMARKS
PHOENIX        CLOUDY    93  30  10 W8        29.76F
BUCKEYE        MOSUNNY   93  32  11 SW7       29.78S
GLENDALE       PTSUNNY   97  27   8 SW13      29.78F
DEER VALLEY    CLOUDY    92  28  10 SW13      29.78F
SCOTTSDALE     CLOUDY    92  33  12 W8        29.81F
MESA-FALCON    PTSUNNY   91  34  13 W8        29.79F
CHANDLER       PTSUNNY   93  28  10 W6        29.78F
$$

AZZ539-553-270200-
SOUTHWEST MARICOPA COUNTY AND PINAL COUNTY

CITY           SKY/WX    TMP DP  RH WIND       PRES   REMARKS
CASA GRANDE    CLOUDY    91  32  12 NW8       29.80F
GILA BEND      PTSUNNY   95  25   8 W10       29.75S
$$

AZZ503-504-507>509-270200-
SOUTHEAST ARIZONA

CITY           SKY/WX    TMP DP  RH WIND       PRES   REMARKS
TUCSON         CLOUDY    89  24   9 NW10      29.87S
DAVIS-MONTHAN  CLOUDY    88  25  10 NW9       29.86S
RYAN FIELD     SUNNY     90  27  10 N10       29.86S
NOGALES        CLOUDY    82  27  13 SW5       29.97S
SIERRA VISTA   CLOUDY    78  23  13 W13       30.02R
DOUGLAS        CLOUDY    82  25  12 SW12      29.96F
SAFFORD        CLOUDY    89  21   8 W17G25    29.85S
$$

AZZ532-270200-
SOUTHWEST ARIZONA

CITY           SKY/WX    TMP DP  RH WIND       PRES   REMARKS
YUMA           MOSUNNY   95  41  15 W7        29.74F
$$

CAZ041-043-047-048-061-525>527-560>570-270200-
SOUTHERN CALIFORNIA

CITY           SKY/WX    TMP DP  RH WIND       PRES   REMARKS
DOWNTOWN L.A.  SUNNY     64  52  64 W5        29.96S
L.A. AIRPORT   MOSUNNY   61  51  70 W16       29.98R
SAN DIEGO      PTSUNNY   63  52  67 NW12      30.00S
BURBANK        SUNNY     70  49  47 S10       29.93F
ONTARIO        SUNNY     75  47  36 W14       29.93S
RIVERSIDE      SUNNY     74  43  32 W14       29.92F
PALM SPRINGS   SUNNY     93  38  14 NW20G26   29.77S
EL CENTRO NAS  MOSUNNY   98  27   8 SW13      29.74S
IMPERIAL       SUNNY     97  33  10 SW9       29.72F
BLYTHE         SUNNY     99  33  10 SW16      29.73F
NEEDLES        SUNNY    102  13   4 S12       29.73F
$$

NVZ020-UTZ003-270200-
SOUTHERN NEVADA-UTAH

CITY           SKY/WX    TMP DP  RH WIND       PRES   REMARKS
LAS VEGAS      MOSUNNY   95  21   7 CALM      29.80F
SALT LAKE CITY SUNNY     74  33  22 N9        30.05F
$$

NMZ009-TXZ055-270200-
NEW MEXICO-WEST TEXAS

CITY           SKY/WX    TMP DP  RH WIND       PRES   REMARKS
ALBUQUERQUE    PTCLDY    74  20  13 E25G32    30.04R
EL PASO        MOCLDY    84  22  10 CALM      29.95S
$$


........................KEY........................
SKY/WX - SKY CONDITION/WEATHER
TMP    - TEMPERATURE IN FAHRENHEIT
DP     - DEW POINT IN FAHRENHEIT
RH     - RELATIVE HUMIDITY IN PERCENT
WIND   - DIRECTION AND SPEED IN MILES PER HOUR (MPH)
VRB    - VARIABLE WIND DIRECTION
PRES   - MEAN SEA LEVEL PRESSURE IN INCHES OF MERCURY
         F - FALLING PRESSURE   R - RISING PRESSURE
         S - STEADY PRESSURE
VSB    - VISIBILITY IN MILES
HX     - HEAT INDEX IN FAHRENHEIT
WCI    - WIND CHILL INDEX IN FAHRENHEIT
TC     - TEMPERATURE IN CELSIUS WHICH IS ALSO KNOWN AS
         TEMPERATURE IN CENTIGRADE
AFB    - AIR FORCE BASE
         LUKE AFB IS LUKE AIR FORCE BASE
         DAVIS-MONTHAN IS DAVIS-MONTHAN AIR FORCE BASE
NAS    - NAVAL AIR STATION
         EL CENTRO NAS IS EL CENTRO NAVAL AIR STATION
N/A    - NOT AVAILABLE




USA.gov is the U.S. government's official web portal to all federal, state and local government web resources and services.